Regional Weather Roundup
Issued by NWS

Home | Current Version | Previous Version | Text Only | Print | Product List | Glossary Off
Versions: 1 2 3 4 5 6 7 8 9 10 11 12 13 14 15 16 17 18 19 20 21 22 23 24 25 26 27 28 29 30 31 32 33 34 35 36 37 38 39 40 41 42 43 44 45 46 47 48 49 50

000
ASUS43 KMPX 220210
RWRMN
WEATHER ROUNDUP FOR MINNESOTA
NATIONAL WEATHER SERVICE TWIN CITIES/CHANHASSEN MN
900 PM CDT FRI JUL 21 2017


NOTE: "FAIR" INDICATES FEW OR NO CLOUDS BELOW 12,000 FEET WITH NO
SIGNIFICANT WEATHER AND/OR OBSTRUCTIONS TO VISIBILITY. N/A MEANS
CURRENT SKY AND/OR WEATHER CONDITIONS ARE NOT AVAILABLE.

MNZ060>063-068>070-220300-
   Twin Cities Metro

CITY           SKY/WX    TMP DP  RH WIND       PRES   REMARKS
TWIN CITIES    MOCLDY    79  67  66 E8        29.83R
ST PAUL        CLEAR     77  69  76 E8        29.83R
CRYSTAL        PTCLDY    78  66  66 E5        29.81R
BLAINE         MOCLDY    79  70  73 SE5       29.83R
LAKEVILLE      MOCLDY    72  70  94 E3        29.84R
EDEN PRAIRIE   CLEAR     78  68  71 CALM      29.82R
SOUTH ST PAUL  CLEAR     77  67  73 E5        29.83R
LAKE ELMO      MOCLDY    73  68  83 E5        29.85R
$$
MNZ001>005-007-008-013>017-022>024-027-028-220300-
   Northwest Minnesota

CITY           SKY/WX    TMP DP  RH WIND       PRES   REMARKS
BEMIDJI        MOCLDY    66  64  93 CALM      29.80S
HALLOCK        PTCLDY    72  63  73 E10       29.76F
ROSEAU         CLOUDY    68  63  83 E6        29.79F
WARROAD        CLOUDY    70  66  88 E8        29.80F
THIEF RVR FALL CLOUDY    71  67  87 E7        29.78F
CROOKSTON      MOCLDY    73  70  88 E6        29.75F
FOSSTON        CLOUDY    66  64  94 S6        29.78F
DETROIT LAKES  CLOUDY    70  64  83 E12       29.82S
MOORHEAD       CLOUDY    77  59  53 NE3       29.77F
PARK RAPIDS    CLOUDY    69  65  86 S8        29.81F
MAHNOMEN       FAIR      70  64  80 SE6       29.77F
$$
MNZ006-009>011-018-025>026-220300-
   North Central Minnesota

CITY           SKY/WX    TMP DP  RH WIND       PRES   REMARKS
BAUDETTE       MOCLDY    69  62  78 E6        29.80S
FLAG ISLAND    CLEAR     70  55  60 E5        29.80S
INTL FALLS     PTCLDY    67  61  81 CALM      29.81F
BIG FORK       CLOUDY    63  61  94 NE3       29.82R
LONGVILLE      CLOUDY    66  64  94 SE5       29.81F
GRAND RAPIDS   CLOUDY    65  62  90 SE5       29.82R
CRANE LAKE     CLOUDY    63  63 100 CALM      29.83F
ORR            CLOUDY    61  59  94 CALM      29.80S FOG
COOK           CLOUDY    63  59  88 N3        29.82R
WALKER         FAIR      65  65  97 CALM      29.79F
$$
MNZ012-019>021-037-220300-
   Northeast Minnesota

CITY           SKY/WX    TMP DP  RH WIND       PRES   REMARKS
DULUTH         TSTM      63  63 100 NE5       29.90R
ELY            CLOUDY    64  57  77 CALM      29.81R
HIBBING        CLOUDY    62  61  96 E9        29.79F
EVELETH        CLOUDY    64  56  75 SE6       29.82F
DULUTH HARBOR  TSTM      63  61  94 E14G20    29.88F
TWO HARBORS    CLOUDY    66  61  82 E14       29.85F
SILVER BAY     RAIN      63  61  94 CALM      29.89S
GRAND MARAIS     N/A     64  53  67 E5        29.85F
G MARAIS ARPRT CLOUDY    63  48  59 E7        29.90F
$$
MNZ029>031-032-039>041-046>048-054>057-064-220300-
   West Central Minnesota

CITY           SKY/WX    TMP DP  RH WIND       PRES   REMARKS
FERGUS FALLS   CLOUDY    70  70 100 SE5       29.77R
WHEATON        CLOUDY    79  73  83 NW9       29.78F
MORRIS         CLOUDY    81  73  78 E7        29.77S
ALEXANDRIA     TSTM      71  64  78 NE17G29   29.85R
ELBOW LAKE     TSTM      67  67  98 NE16G37   29.81R VSB 3/4
WADENA         CLOUDY    64  64 100 E6        29.81R
GLENWOOD       CLOUDY    77  73  88 NE6       29.83R
APPLETON       CLEAR     81  72  74 SE6       29.75F
BENSON         CLEAR     79  73  83 S7        29.79F
ORTONVILLE     PTCLDY    81  73  78 E9        29.74F
MADISON        CLEAR     81  73  78 SE6       29.76S
WILLMAR        FAIR      75  73  94 SE5       29.80S
$$
MNZ033>034-036-042>043-049>051-058-059-220300-
   Central Minnesota

CITY           SKY/WX    TMP DP  RH WIND       PRES   REMARKS
ST CLOUD       PTCLDY    75  72  90 NE3       29.84R
SAUK CENTRE    CLOUDY    76  72  85 SE5       29.83R
PAYNESVILLE    MOCLDY    77  71  81 E3        29.82R
AITKIN         CLOUDY    64  63  94 S8        29.83F
PINE RIVER     CLOUDY    64  64 100 S6        29.85F
BRAINERD       RAIN      65  65 100 E3        29.85R FOG
STAPLES        DRIZZLE   66  64  94 N7        29.85R
LONG PRAIRIE   RAIN      72  66  83 NW16G29   29.86R
LITTLE FALLS   CLOUDY    72  61  68 NE6       29.85S
LITCHFIELD     PTCLDY    75  72  88 SE3       29.82R
BUFFALO        PTCLDY    77  69  76 CALM      29.83R
MAPLE LAKE     PTCLDY    76  72  87 CALM      29.82F
HUTCHINSON     CLOUDY    74  71  89 CALM      29.83R
$$
MNZ037-044-045-052-053-220300-
   East Central Minnesota

CITY           SKY/WX    TMP DP  RH WIND       PRES   REMARKS
PRINCETON      PTCLDY    75  72  88 CALM      29.84R
MORA           CLOUDY    70  59  68 N14G22    29.91R
CAMBRIDGE      CLOUDY    77  66  69 CALM      29.84R
RUSH CITY      CLOUDY    75  70  86 N5        29.87R THUNDER
MOOSE LAKE     TSTM      64  63  94 CALM      29.89R
HINCKLEY       HVY RAIN  64  64 100 N6        29.92R
CLOQUET        TSTM      64  61  88 E3        29.91R
MCGREGOR       CLOUDY    64  63  94 SW5       29.84F
$$
MNZ071>073-080-081-089-090-097-098-220300-
   Southwest Minnesota

CITY           SKY/WX    TMP DP  RH WIND       PRES   REMARKS
MONTEVIDEO     CLEAR     79  72  78 S5        29.78R
GRANITE FALLS  CLEAR     79  74  83 SE6       29.80R
CANBY          CLEAR     81  72  74 CALM      29.78S
MARSHALL       CLEAR     79  73  82 SE8       29.79R
REDWOOD FALLS  CLEAR     76  69  79 SE5       29.80R
OLIVIA         CLEAR     75  70  83 SE5       29.80R
PIPESTONE      CLEAR     79  73  83 CALM      29.81R
WINDOM         CLEAR     73  70  88 NE3       29.80R
WORTHINGTON    CLEAR     75  73  93 E5        29.80R
JACKSON        CLEAR     73  70  88 CALM      29.81R
SLAYTON        CLEAR     76  71  84 E3        29.81R
$$
MNZ065>067-074>077-082>085-091>093-220300-
   South Central Minnesota

CITY           SKY/WX    TMP DP  RH WIND       PRES   REMARKS
MANKATO        PTCLDY    75  70  83 NE7       29.82R
NEW ULM        CLEAR     75  66  73 E3        29.80R
ST JAMES       CLEAR     73  70  88 E3        29.81R
FAIRMONT       MOCLDY    73  72  96 E5        29.80R
GLENCOE        PTCLDY    75  72  90 NE3       29.82R
FARIBAULT      MOCLDY    75  68  78 NE6       29.83R
OWATONNA       CLEAR     73  70  88 E5        29.83R
WASECA         PTCLDY    72  68  88 E3        29.83R
ALBERT LEA     CLOUDY    73  70  88 SE7       29.82R
$$
MNZ078>079-086>088-094>096-220300-
   Southeast Minnesota

CITY           SKY/WX    TMP DP  RH WIND       PRES   REMARKS
ROCHESTER      CLOUDY    71  69  93 NE6       29.85R
RED WING       PTCLDY    73  66  78 E6        29.84R
STANTON        CLOUDY    75  68  79 E5        29.83R
DODGE CENTER   CLEAR     72  68  88 E6        29.85R
WINONA         CLOUDY    72  68  88 E5        29.86R
AUSTIN         CLOUDY    72  68  88 E5        29.83R
PRESTON        MOCLDY    69  66  89 E6        29.86R
$$
ABBREVIATIONS USED IN REMARKS
   TC - TEMPERATURES IN CELSIUS
  WCI - WIND CHILL INDEX
   HX - HEAT INDEX
  VSB - VISIBILITY
$$




USA.gov is the U.S. government's official web portal to all federal, state and local government web resources and services.